Location: Unspecified
(0.0000°N, 0.0000°E)
Time: 11:11:05
(UTC+00:00)

Amsat-Oscar-6 - Pass Details

Date: 20 June 2019
Orbit: 1448 x 1454 km, 101.8° (Epoch: 15 July)

Event Time Altitude Azimuth Distance (km) Brightness Sun altitude
Rises 03:29:51 0° 10° (N) 4,541 ? -34.3°
Reaches altitude 10° 03:32:38 10° 9° (N) 3,565 ? -33.7°
Maximum altitude 03:40:54 71° 286° (WNW) 1,527 ? -31.9°
Enters shadow 03:41:23 69° 263° (W) 1,539 ? -31.8°
